period_start,C,m1,H,J0,J1,J2,J3,J4,J5,JA,JB,JC,JD,JJ,JK,JN,#
2014-05-09 00:00:04,-0.12,2.38,0.00,17.33,23.77,25.36,6.07,31.63,1004.41,2051.01,2596.50,2723.59,2893.70,349.43,326.04,32.17,0000 0000 0000 0000 000000
2014-05-09 00:01:04,0.13,2.38,0.00,17.32,23.77,25.38,6.24,31.63,1004.41,2051.00,2596.36,2723.57,2893.62,349.81,326.16,32.17,0000 0000 0000 0000 000000
2014-05-09 00:02:05,0.05,2.38,0.00,17.32,23.77,25.37,6.11,31.63,1004.41,2051.00,2596.18,2723.39,2893.40,350.41,326.72,32.18,0000 0000 0000 0000 000000
2014-05-09 00:03:05,0.12,2.38,0.00,17.32,23.77,25.41,6.01,31.63,1004.41,2051.00,2596.08,2723.18,2893.22,350.11,326.44,32.19,0000 0000 0000 0000 000000
2014-05-09 00:04:05,0.11,2.38,0.00,17.32,23.77,25.45,6.14,31.46,1004.41,2051.00,2596.03,2723.08,2893.11,350.93,326.82,32.19,0000 0000 0000 0000 000000
2014-05-09 00:05:06,0.05,2.38,0.00,17.27,23.77,25.36,6.06,31.29,1004.41,2051.00,2596.01,2723.03,2893.06,349.70,326.11,32.20,0000 0000 0000 0000 000000
2014-05-09 00:06:06,0.02,2.38,0.00,17.24,23.77,25.36,6.07,31.79,1004.41,2051.00,2596.00,2723.02,2893.03,349.05,325.54,32.20,0000 0000 0000 0000 000000
2014-05-09 00:07:06,0.00,2.38,0.00,17.24,23.77,25.34,6.02,31.71,1004.41,2051.00,2596.00,2723.03,2893.03,349.15,326.11,32.21,0000 0000 0000 0000 000000
2014-05-09 00:08:06,0.00,2.38,0.00,17.26,23.77,25.36,6.11,31.75,1004.41,2051.00,2595.99,2723.02,2893.01,349.24,325.83,32.22,0000 0000 0000 0000 000000
2014-05-09 00:09:07,0.00,2.38,0.00,17.30,23.77,25.40,6.10,31.67,1004.41,2051.01,2595.98,2723.02,2893.00,349.65,326.13,32.22,0000 0000 0000 0000 000000
2014-05-09 00:10:07,0.01,2.38,0.00,17.33,23.77,25.37,6.07,31.75,1004.41,2051.00,2595.99,2723.02,2893.01,350.60,326.95,32.23,0000 0000 0000 0000 000000
2014-05-09 00:11:07,-0.01,2.38,0.00,17.37,23.77,25.43,6.06,31.83,1004.41,2051.00,2595.97,2723.01,2893.00,349.73,326.08,32.23,0000 0000 0000 0000 000000
2014-05-09 00:12:07,0.01,2.38,0.00,17.38,23.77,25.52,6.03,31.63,1004.41,2051.00,2595.96,2723.00,2893.00,349.98,326.26,32.24,0000 0000 0000 0000 000000
2014-05-09 00:13:07,0.00,2.38,0.00,17.40,23.77,25.53,6.16,31.58,1004.41,2051.00,2595.78,2723.00,2893.00,350.18,326.41,32.24,0000 0000 0000 0000 000000
2014-05-09 00:14:07,0.04,2.38,0.00,17.40,23.77,25.45,6.05,31.71,1004.41,2051.00,2595.58,2723.00,2893.00,349.74,326.00,32.25,0000 0000 0000 0000 000000
2014-05-09 00:15:07,0.04,2.38,0.00,17.39,23.78,25.46,6.07,31.63,1004.41,2051.00,2595.65,2723.00,2893.00,349.57,325.85,32.26,0000 0000 0000 0000 000000
2014-05-09 00:16:08,-0.04,2.38,0.00,17.41,23.79,25.51,5.98,31.50,1004.42,2051.00,2595.38,2722.99,2893.00,349.21,325.32,32.26,0000 0000 0000 0000 000000
2014-05-09 00:17:08,0.08,2.38,0.00,17.43,23.79,25.50,6.04,31.46,1004.42,2051.00,2595.16,2722.99,2892.99,349.44,325.69,32.27,0000 0000 0000 0000 000000
2014-05-09 00:18:08,0.04,2.38,0.00,17.45,23.79,25.49,6.02,31.75,1004.41,2051.00,2595.06,2722.99,2892.98,349.58,325.87,32.27,0000 0000 0000 0000 000000
2014-05-09 00:19:08,0.02,2.38,0.00,17.46,23.80,25.45,6.19,31.50,1004.41,2051.00,2595.04,2722.99,2892.96,350.74,326.87,32.28,0000 0000 0000 0000 000000
2014-05-09 00:20:09,0.00,2.38,0.00,17.44,23.80,25.49,6.18,31.33,1004.41,2051.01,2595.01,2722.98,2892.96,349.93,326.10,32.29,0000 0000 0000 0000 000000
2014-05-09 00:21:09,0.00,2.38,0.00,17.41,23.80,25.55,6.02,31.58,1004.41,2051.01,2595.00,2722.97,2892.92,349.69,326.12,32.29,0000 0000 0000 0000 000000
2014-05-09 00:22:09,0.01,2.38,0.00,17.37,23.80,25.53,6.15,31.38,1004.41,2051.00,2595.00,2722.95,2892.86,350.08,326.43,32.30,0000 0000 0000 0000 000000
2014-05-09 00:23:09,0.01,2.38,0.00,17.34,23.80,25.49,6.09,31.75,1004.42,2051.00,2594.98,2722.92,2892.57,349.86,326.43,32.30,0000 0000 0000 0000 000000
2014-05-09 00:24:09,0.06,2.39,0.00,17.36,23.80,25.50,5.99,31.63,1004.42,2051.00,2594.94,2722.84,2892.32,349.41,325.88,32.31,0000 0000 0000 0000 000000
2014-05-09 00:25:10,0.06,2.39,0.00,17.36,23.80,25.48,6.11,31.79,1004.42,2051.00,2594.78,2722.63,2892.18,352.03,328.19,32.31,0000 0000 0000 0000 000000
2014-05-09 00:26:10,0.11,2.39,0.00,17.30,23.80,25.48,6.03,32.17,1004.44,2051.00,2594.36,2722.30,2892.08,349.67,326.06,32.32,0000 0000 0000 0000 000000
2014-05-09 00:27:10,0.18,2.39,0.00,17.25,23.80,25.48,6.07,32.08,1004.43,2051.00,2594.13,2722.12,2892.03,350.28,326.68,32.33,0000 0000 0000 0000 000000
2014-05-09 00:28:11,0.09,2.39,0.00,17.23,23.80,25.44,6.12,31.96,1004.42,2051.00,2594.05,2722.04,2892.00,350.48,326.89,32.33,0000 0000 0000 0000 000000
2014-05-09 00:29:11,0.03,2.39,0.00,17.27,23.81,25.46,6.07,31.67,1004.42,2051.00,2594.03,2722.01,2892.00,350.27,326.64,32.34,0000 0000 0000 0000 000000
2014-05-09 00:30:11,0.01,2.39,0.00,17.31,23.82,25.49,6.08,31.67,1004.41,2051.00,2594.01,2722.01,2892.00,349.89,326.23,32.34,0000 0000 0000 0000 000000
2014-05-09 00:31:11,0.00,2.39,0.00,17.36,23.82,25.52,5.98,31.71,1004.42,2051.00,2594.00,2722.00,2892.00,350.11,326.11,32.35,0000 0000 0000 0000 000000
2014-05-09 00:32:12,0.00,2.39,0.00,17.41,23.82,25.49,5.99,31.71,1004.42,2051.00,2593.99,2722.00,2892.00,349.51,325.78,32.36,0000 0000 0000 0000 000000
2014-05-09 00:33:12,0.00,2.39,0.00,17.42,23.82,25.52,6.01,31.67,1004.44,2051.00,2593.99,2722.01,2892.00,349.41,325.70,32.36,0000 0000 0000 0000 000000
2014-05-09 00:34:12,0.00,2.39,0.00,17.45,23.82,25.53,5.90,31.83,1004.41,2051.00,2593.99,2722.01,2891.99,348.74,325.23,32.37,0000 0000 0000 0000 000000
2014-05-09 00:35:12,0.00,2.39,0.00,17.45,23.82,25.58,6.10,31.67,1004.45,2051.00,2593.96,2722.01,2891.98,350.05,326.24,32.37,0000 0000 0000 0000 000000
2014-05-09 00:36:12,0.00,2.39,0.00,17.43,23.82,25.57,6.06,31.92,1004.45,2051.00,2593.96,2721.99,2891.96,349.97,326.25,32.38,0000 0000 0000 0000 000000
2014-05-09 00:37:12,0.00,2.39,0.00,17.42,23.82,25.57,6.14,31.75,1004.47,2051.00,2593.92,2721.99,2891.90,350.83,327.02,32.39,0000 0000 0000 0000 000000
2014-05-09 00:38:13,0.02,2.39,0.00,17.42,23.82,25.59,6.07,31.71,1004.45,2051.00,2593.93,2721.98,2891.84,349.78,325.89,32.39,0000 0000 0000 0000 000000
2014-05-09 00:39:13,0.01,2.39,0.00,17.42,23.83,25.58,5.98,31.71,1004.47,2051.00,2593.87,2721.99,2891.72,348.87,325.56,32.40,0000 0000 0000 0000 000000
2014-05-09 00:40:13,0.04,2.39,0.00,17.43,23.83,25.55,6.09,31.67,1004.48,2051.00,2593.82,2721.99,2891.58,350.37,326.58,32.40,0000 0000 0000 0000 000000
2014-05-09 00:41:13,0.02,2.39,0.00,17.42,23.84,25.58,6.14,31.33,1004.48,2051.00,2593.53,2721.97,2891.43,349.41,325.69,32.41,0000 0000 0000 0000 000000
2014-05-09 00:42:14,0.09,2.39,0.00,17.43,23.84,25.57,6.11,31.58,1004.51,2051.00,2593.22,2721.94,2891.22,349.75,325.93,32.41,0000 0000 0000 0000 000000
2014-05-09 00:43:14,0.09,2.39,0.00,17.46,23.85,25.57,6.09,31.33,1004.49,2051.00,2593.16,2721.96,2891.16,350.68,326.10,32.42,0000 0000 0000 0000 000000
2014-05-09 00:44:14,0.01,2.39,0.00,17.47,23.85,25.54,5.98,31.42,1004.47,2051.00,2593.13,2721.92,2891.08,349.63,325.76,32.43,0000 0000 0000 0000 000000
2014-05-09 00:45:14,0.03,2.39,0.00,17.48,23.85,25.57,6.08,31.46,1004.46,2051.00,2593.05,2721.81,2891.03,349.91,326.23,32.43,0000 0000 0000 0000 000000
2014-05-09 00:46:14,0.05,2.39,0.00,17.48,23.85,25.61,6.06,31.63,1004.47,2051.00,2593.02,2721.78,2891.02,349.25,325.53,32.44,0000 0000 0000 0000 000000
2014-05-09 00:47:15,0.02,2.39,0.00,17.50,23.85,25.60,6.05,31.63,1004.47,2051.00,2593.00,2721.74,2891.00,350.07,326.22,32.44,0000 0000 0000 0000 000000
2014-05-09 00:48:15,0.01,2.39,0.00,17.52,23.85,25.59,6.04,31.42,1004.50,2051.00,2593.01,2721.59,2891.00,350.41,326.52,32.45,0000 0000 0000 0000 000000
2014-05-09 00:49:15,0.04,2.39,0.00,17.49,23.85,25.60,5.88,31.58,1004.55,2051.00,2592.99,2721.37,2891.00,349.32,325.55,32.46,0000 0000 0000 0000 000000
2014-05-09 00:50:15,0.06,2.39,0.00,17.44,23.85,25.58,6.15,31.42,1004.67,2050.99,2592.88,2721.16,2891.00,349.97,326.26,32.46,0000 0000 0000 0000 000000
2014-05-09 00:51:16,0.06,2.39,0.00,17.39,23.86,25.57,6.03,31.71,1004.57,2050.97,2592.86,2721.07,2891.00,349.40,325.74,32.47,0000 0000 0000 0000 000000
2014-05-09 00:52:16,0.02,2.39,0.00,17.38,23.87,25.62,6.18,31.54,1004.68,2050.96,2592.93,2721.03,2890.99,349.91,326.27,32.47,0000 0000 0000 0000 000000
2014-05-09 00:53:16,0.00,2.39,0.00,17.42,23.87,25.56,6.18,31.42,1004.74,2050.98,2592.95,2721.04,2890.99,351.59,327.42,32.48,0000 0000 0000 0000 000000
2014-05-09 00:54:16,0.00,2.39,0.00,17.44,23.87,25.59,6.23,31.88,1004.69,2050.97,2592.90,2721.02,2890.99,350.29,326.49,32.48,0000 0000 0000 0000 000000
2014-05-09 00:55:17,0.01,2.39,0.00,17.47,23.87,25.65,5.99,31.71,1004.81,2050.96,2592.64,2721.01,2890.97,349.20,325.85,32.49,0000 0000 0000 0000 000000
2014-05-09 00:56:17,0.06,2.39,0.00,17.50,23.87,25.70,6.06,31.79,1004.73,2050.97,2592.62,2721.01,2890.94,349.68,326.16,32.50,0000 0000 0000 0000 000000
2014-05-09 00:57:17,0.01,2.39,0.00,17.49,23.87,25.75,6.17,31.67,1004.80,2050.99,2592.34,2721.00,2890.89,350.46,326.69,32.50,0000 0000 0000 0000 000000
2014-05-09 00:58:17,0.07,2.39,0.00,17.51,23.87,25.76,6.02,31.63,1004.87,2050.98,2592.17,2721.00,2890.80,349.29,325.79,32.51,0000 0000 0000 0000 000000
2014-05-09 00:59:18,0.04,2.39,0.00,17.55,23.87,25.73,6.22,31.75,1004.88,2050.96,2592.07,2721.00,2890.52,351.02,327.18,32.51,0000 0000 0000 0000 000000
2014-05-09 01:00:18,0.06,2.39,0.00,17.57,23.88,25.69,6.03,31.54,1004.85,2050.97,2592.04,2721.00,2890.30,349.49,325.72,32.52,0000 0000 0000 0000 000000
2014-05-09 01:01:18,0.04,2.39,0.00,17.60,23.89,25.66,6.03,31.75,1004.82,2050.96,2592.01,2720.99,2890.15,349.46,325.65,32.53,0000 0000 0000 0000 000000
2014-05-09 01:02:18,0.01,2.39,0.00,17.61,23.89,25.69,6.15,31.33,1004.84,2050.96,2591.99,2720.98,2890.06,350.61,326.72,32.53,0000 0000 0000 0000 000000
2014-05-09 01:03:19,0.02,2.39,0.00,17.62,23.90,25.74,6.29,31.54,1004.88,2050.95,2591.97,2720.98,2890.02,351.39,327.03,32.54,0000 0000 0000 0000 000000
2014-05-09 01:04:19,0.00,2.39,0.00,17.64,23.90,25.80,6.01,31.42,1004.84,2050.97,2591.97,2720.98,2890.03,349.94,326.26,32.54,0000 0000 0000 0000 000000
2014-05-09 01:05:19,0.02,2.39,0.00,17.66,23.90,25.83,6.15,31.50,1004.82,2050.97,2591.99,2720.98,2890.03,350.29,326.57,32.55,0000 0000 0000 0000 000000
2014-05-09 01:06:19,-0.01,2.39,0.00,17.67,23.90,25.89,6.14,31.46,1004.85,2050.98,2591.96,2720.97,2890.01,350.10,326.26,32.55,0000 0000 0000 0000 000000
2014-05-09 01:07:20,0.01,2.39,0.00,17.68,23.90,25.89,6.02,31.42,1004.87,2050.93,2591.90,2720.94,2890.00,349.58,325.68,32.56,0000 0000 0000 0000 000000
2014-05-09 01:08:20,-0.00,2.39,0.00,17.68,23.90,25.88,6.11,31.38,1004.79,2050.95,2591.94,2720.94,2890.00,349.97,326.03,32.57,0000 0000 0000 0000 000000
2014-05-09 01:09:20,-0.01,2.39,0.00,17.66,23.91,25.82,6.13,31.42,1004.86,2050.95,2591.85,2720.92,2890.00,350.43,326.50,32.57,0000 0000 0000 0000 000000
2014-05-09 01:10:20,0.02,2.39,0.00,17.65,23.92,25.86,6.17,31.58,1004.80,2050.95,2591.69,2720.81,2890.00,349.69,325.80,32.58,0000 0000 0000 0000 000000
2014-05-09 01:11:21,0.09,2.39,0.00,17.63,23.92,25.93,6.10,31.50,1004.79,2050.96,2591.47,2720.54,2889.99,350.34,326.43,32.58,0000 0000 0000 0000 000000
2014-05-09 01:12:21,0.13,2.40,0.00,17.61,23.92,25.88,5.99,31.38,1004.86,2050.96,2591.24,2720.27,2889.99,349.42,325.60,32.59,0000 0000 0000 0000 000000
2014-05-09 01:13:21,0.10,2.40,0.00,17.59,23.92,25.88,6.11,31.50,1004.84,2050.92,2591.13,2720.13,2889.97,350.76,326.47,32.60,0000 0000 0000 0000 000000
2014-05-09 01:14:22,0.01,2.40,0.00,17.62,23.92,25.82,6.05,31.46,1004.78,2050.86,2591.17,2720.11,2889.96,350.12,326.43,32.60,0000 0000 0000 0000 000000
2014-05-09 01:15:22,-0.08,2.40,0.00,17.63,23.92,25.84,6.05,31.42,1004.75,2050.81,2591.48,2720.07,2889.96,350.16,326.04,32.61,0000 0000 0000 0000 000000
2014-05-09 01:16:22,-0.04,2.40,0.00,17.65,23.93,25.83,6.18,31.38,1004.78,2050.84,2591.57,2720.05,2889.95,350.14,326.21,32.61,0000 0000 0000 0000 000000
2014-05-09 01:17:23,0.00,2.40,0.00,17.65,23.94,25.81,6.12,31.50,1004.76,2050.79,2591.40,2720.03,2889.90,350.05,326.13,32.62,0000 0000 0000 0000 000000
2014-05-09 01:18:23,0.01,2.40,0.00,17.65,23.94,25.80,5.88,31.50,1004.63,2050.67,2591.25,2720.03,2889.78,349.12,325.44,32.63,0000 0000 0000 0000 000000
2014-05-09 01:19:23,-0.07,2.40,0.00,17.66,23.95,25.83,6.02,31.29,1004.58,2050.57,2591.21,2720.02,2889.68,349.68,325.42,32.63,0000 0000 0000 0000 000000
2014-05-09 01:20:23,0.01,2.40,0.00,17.65,23.95,25.83,6.07,31.54,1004.66,2050.58,2591.14,2720.01,2889.51,349.86,325.91,32.64,0000 0000 0000 0000 000000
2014-05-09 01:21:24,0.01,2.40,0.00,17.62,23.95,25.74,6.05,31.46,1004.76,2050.49,2591.06,2720.00,2889.30,350.41,326.67,32.64,0000 0000 0000 0000 000000
2014-05-09 01:22:24,-0.07,2.40,0.00,17.58,23.95,25.77,6.10,31.54,1004.79,2050.39,2591.00,2720.00,2889.14,350.64,326.80,32.65,0000 0000 0000 0000 000000
2014-05-09 01:23:24,0.00,2.40,0.00,17.59,23.95,25.80,6.00,31.54,1004.75,2050.39,2590.98,2720.00,2889.07,349.71,325.45,32.65,0000 0000 0000 0000 000000
2014-05-09 01:24:24,0.02,2.40,0.00,17.63,23.96,25.85,6.07,31.92,1004.77,2050.31,2590.92,2719.99,2889.03,349.55,326.10,32.66,0000 0000 0000 0000 000000
2014-05-09 01:25:25,-0.07,2.40,0.00,17.68,23.97,25.92,6.08,31.83,1004.80,2050.16,2590.81,2719.98,2889.01,349.54,325.62,32.67,0000 0000 0000 0000 000000
2014-05-09 01:26:25,-0.10,2.39,0.00,17.71,23.97,25.93,6.13,31.38,1004.76,2050.10,2590.75,2719.99,2889.00,351.74,327.64,32.67,0000 0000 0000 0000 000000
2014-05-09 01:27:25,-0.03,2.39,0.00,17.71,23.97,25.95,6.16,31.67,1004.80,2050.07,2590.60,2719.96,2889.00,351.34,326.85,32.68,0000 0000 0000 0000 000000
2014-05-09 01:28:26,0.01,2.39,0.00,17.71,23.97,25.97,5.97,31.46,1004.78,2050.09,2590.37,2719.98,2889.00,349.22,325.29,32.68,0000 0000 0000 0000 000000
2014-05-09 01:29:26,0.05,2.39,0.00,17.71,23.97,25.95,6.07,31.75,1004.82,2050.10,2590.20,2719.97,2889.00,349.68,325.74,32.69,0000 0000 0000 0000 000000
2014-05-09 01:30:26,0.06,2.39,0.00,17.73,23.98,25.92,6.16,31.63,1004.77,2050.10,2590.12,2719.85,2888.99,350.34,326.55,32.70,0000 0000 0000 0000 000000
2014-05-09 01:31:26,0.02,2.39,0.00,17.73,23.99,25.89,6.21,31.29,1004.83,2050.07,2590.07,2719.84,2888.98,350.24,326.16,32.70,0000 0000 0000 0000 000000
2014-05-09 01:32:27,0.01,2.40,0.00,17.73,23.99,25.93,6.13,31.29,1004.86,2050.05,2590.03,2719.78,2888.97,350.83,326.53,32.71,0000 0000 0000 0000 000000
2014-05-09 01:33:27,0.02,2.39,0.00,17.74,24.00,25.96,6.20,31.42,1004.89,2050.04,2590.01,2719.59,2888.98,350.76,326.42,32.71,0000 0000 0000 0000 000000
2014-05-09 01:34:27,0.05,2.40,0.00,17.77,24.00,25.98,6.04,31.38,1004.89,2050.07,2590.00,2719.45,2888.96,350.82,326.62,32.72,0000 0000 0000 0000 000000
2014-05-09 01:35:27,0.05,2.40,0.00,17.79,24.00,25.98,6.02,31.46,1004.83,2050.05,2590.00,2719.30,2888.90,349.27,325.65,32.72,0000 0000 0000 0000 000000
2014-05-09 01:36:28,0.04,2.40,0.00,17.81,24.00,25.99,6.10,31.71,1004.85,2050.05,2589.96,2719.17,2888.73,349.36,325.33,32.73,0000 0000 0000 0000 000000
2014-05-09 01:37:28,0.07,2.40,0.00,17.84,24.01,25.97,6.17,31.38,1004.86,2050.04,2589.78,2719.08,2888.42,350.27,326.16,32.74,0000 0000 0000 0000 000000
2014-05-09 01:38:28,0.10,2.40,0.00,17.86,24.02,25.99,6.11,31.38,1004.81,2050.03,2589.65,2719.03,2888.18,349.67,325.47,32.74,0000 0000 0000 0000 000000
2014-05-09 01:39:29,0.07,2.40,0.00,17.86,24.02,25.99,5.88,31.46,1004.82,2050.02,2589.38,2719.01,2888.07,349.21,325.41,32.75,0000 0000 0000 0000 000000
2014-05-09 01:40:29,0.06,2.40,0.00,17.88,24.02,25.98,6.16,31.58,1004.85,2050.01,2589.14,2719.00,2888.03,350.94,326.55,32.75,0000 0000 0000 0000 000000
2014-05-09 01:41:29,0.05,2.40,0.00,17.88,24.02,25.96,5.98,31.38,1004.81,2050.01,2589.05,2718.99,2888.01,349.76,325.76,32.76,0000 0000 0000 0000 000000
2014-05-09 01:42:30,0.02,2.40,0.00,17.87,24.02,26.01,6.15,31.38,1004.85,2050.00,2589.01,2718.98,2888.01,351.33,327.09,32.77,0000 0000 0000 0000 000000
2014-05-09 01:43:30,0.01,2.40,0.00,17.86,24.03,26.02,6.13,31.54,1004.70,2050.02,2589.01,2718.99,2888.00,349.82,325.66,32.77,0000 0000 0000 0000 000000
2014-05-09 01:44:30,0.01,2.40,0.00,17.84,24.04,26.05,6.15,31.33,1004.80,2050.02,2589.03,2718.98,2888.00,349.84,325.67,32.78,0000 0000 0000 0000 000000
2014-05-09 01:45:31,0.00,2.40,0.00,17.82,24.05,26.01,5.97,31.33,1004.81,2050.02,2589.00,2718.99,2888.00,349.91,325.82,32.78,0000 0000 0000 0000 000000
2014-05-09 01:46:31,0.00,2.40,0.00,17.82,24.05,25.98,6.14,31.42,1004.84,2050.01,2589.00,2718.96,2887.99,350.39,326.27,32.79,0000 0000 0000 0000 000000
2014-05-09 01:47:31,0.00,2.40,0.00,17.80,24.05,25.97,6.09,31.13,1004.89,2050.00,2589.00,2718.93,2887.98,349.86,325.62,32.80,0000 0000 0000 0000 000000
2014-05-09 01:48:32,0.00,2.40,0.00,17.80,24.05,25.98,5.91,31.42,1004.89,2050.00,2589.00,2718.93,2887.98,348.70,324.74,32.80,0000 0000 0000 0000 000000
2014-05-09 01:49:32,0.00,2.40,0.00,17.83,24.06,26.03,6.13,31.50,1004.87,2050.00,2589.01,2718.93,2887.97,350.36,326.25,32.81,0000 0000 0000 0000 000000
2014-05-09 01:50:32,0.00,2.40,0.00,17.84,24.07,26.07,6.06,31.46,1004.89,2050.00,2589.00,2718.90,2887.91,349.28,325.24,32.81,0000 0000 0000 0000 000000
2014-05-09 01:51:32,0.03,2.40,0.00,17.85,24.07,25.98,6.11,31.46,1004.89,2050.00,2588.96,2718.73,2887.80,349.72,325.70,32.82,0000 0000 0000 0000 000000
2014-05-09 01:52:33,0.09,2.40,0.00,17.85,24.07,26.02,6.08,31.46,1004.89,2050.00,2588.93,2718.45,2887.66,350.50,326.37,32.82,0000 0000 0000 0000 000000
2014-05-09 01:53:33,0.11,2.40,0.00,17.86,24.07,26.08,6.04,31.46,1004.90,2050.00,2588.63,2718.25,2887.41,350.14,325.94,32.83,0000 0000 0000 0000 000000
2014-05-09 01:54:33,0.14,2.40,0.00,17.89,24.07,26.14,6.04,31.63,1004.84,2050.00,2588.42,2718.12,2887.29,349.16,325.42,32.84,0000 0000 0000 0000 000000
2014-05-09 01:55:33,0.10,2.40,0.00,17.90,24.08,26.12,6.07,31.63,1004.80,2050.00,2588.41,2718.05,2887.21,349.90,325.67,32.84,0000 0000 0000 0000 000000
2014-05-09 01:56:34,0.04,2.40,0.00,17.90,24.09,26.13,6.08,31.46,1004.87,2050.00,2588.26,2718.02,2887.11,350.31,325.28,32.85,0000 0000 0000 0000 000000
2014-05-09 01:57:34,0.02,2.40,0.00,17.92,24.10,26.08,6.02,31.25,1004.88,2050.00,2588.47,2718.01,2887.09,350.32,325.95,32.85,0000 0000 0000 0000 000000
2014-05-09 01:58:34,-0.01,2.40,0.00,17.92,24.10,26.06,5.97,31.25,1004.89,2050.00,2588.30,2718.03,2887.06,350.47,326.42,32.86,0000 0000 0000 0000 000000
2014-05-09 01:59:34,0.03,2.40,0.00,17.91,24.10,26.10,6.13,31.38,1004.89,2050.00,2588.11,2718.01,2887.02,348.95,325.35,32.87,0000 0000 0000 0000 000000
2014-05-09 02:00:35,0.03,2.40,0.00,17.91,24.10,26.12,6.00,31.33,1004.90,2050.00,2588.04,2718.00,2887.00,349.73,325.58,32.87,0000 0000 0000 0000 000000
2014-05-09 02:01:35,0.01,2.40,0.00,17.92,24.12,26.15,6.06,31.25,1004.90,2050.00,2588.01,2718.00,2887.00,349.08,324.97,32.88,0000 0000 0000 0000 000000
2014-05-09 02:02:35,0.00,2.40,0.00,17.96,24.12,26.18,6.13,31.38,1004.90,2049.99,2587.98,2718.00,2887.00,351.66,327.27,32.88,0000 0000 0000 0000 000000
2014-05-09 02:03:36,0.00,2.40,0.00,17.96,24.12,26.09,6.08,31.29,1004.89,2049.99,2587.86,2717.99,2886.99,350.19,325.95,32.89,0000 0000 0000 0000 000000
2014-05-09 02:04:36,0.02,2.40,0.00,17.98,24.12,26.12,5.98,31.50,1004.90,2049.99,2587.85,2717.98,2886.99,349.56,325.33,32.89,0000 0000 0000 0000 000000
2014-05-09 02:05:36,0.02,2.40,0.00,17.99,24.12,26.18,6.18,31.46,1004.90,2049.99,2587.90,2717.99,2886.97,350.98,326.66,32.90,0000 0000 0000 0000 000000
2014-05-09 02:06:37,-0.01,2.40,0.00,18.01,24.14,26.15,5.88,31.25,1004.89,2049.99,2587.80,2717.99,2886.97,348.38,324.38,32.91,0000 0000 0000 0000 000000
2014-05-09 02:07:37,0.04,2.40,0.00,18.01,24.14,26.17,6.17,31.21,1004.90,2049.99,2587.33,2717.95,2886.93,351.38,326.99,32.91,0000 0000 0000 0000 000000
2014-05-09 02:08:37,0.08,2.40,0.00,18.03,24.15,26.14,6.11,31.38,1004.90,2049.99,2587.13,2717.86,2886.71,350.36,326.04,32.92,0000 0000 0000 0000 000000
2014-05-09 02:09:37,0.10,2.40,0.00,18.06,24.15,26.16,5.98,31.25,1004.90,2049.98,2587.06,2717.82,2886.61,349.45,325.15,32.92,0000 0000 0000 0000 000000
2014-05-09 02:10:37,0.06,2.40,0.00,18.07,24.15,26.17,6.03,31.33,1004.90,2049.96,2587.03,2717.75,2886.45,349.85,325.67,32.93,0000 0000 0000 0000 000000
2014-05-09 02:11:38,0.04,2.40,0.00,18.09,24.16,26.21,6.17,31.54,1004.89,2049.97,2587.01,2717.50,2886.20,349.31,324.99,32.94,0000 0000 0000 0000 000000
2014-05-09 02:12:38,0.09,2.40,0.00,18.09,24.17,26.27,6.10,31.46,1004.89,2049.98,2587.00,2717.28,2886.09,350.93,326.48,32.94,0000 0000 0000 0000 000000
2014-05-09 02:13:38,0.07,2.41,0.00,18.10,24.17,26.21,6.18,31.25,1004.87,2049.97,2587.00,2717.23,2886.10,349.96,325.32,32.95,0000 0000 0000 0000 000000
2014-05-09 02:14:39,0.02,2.41,0.00,18.08,24.17,26.23,6.03,31.67,1004.84,2049.94,2587.00,2717.13,2886.06,350.30,325.90,32.95,0000 0000 0000 0000 000000
2014-05-09 02:15:39,0.00,2.41,0.00,18.03,24.18,26.24,6.02,31.38,1004.86,2049.93,2587.00,2717.09,2886.02,349.37,324.77,32.96,0000 0000 0000 0000 000000
2014-05-09 02:16:39,0.01,2.41,0.00,18.00,24.19,26.20,6.04,31.42,1004.85,2049.95,2586.99,2717.06,2886.00,350.14,326.08,32.96,0000 0000 0000 0000 000000
2014-05-09 02:17:39,0.04,2.41,0.00,17.98,24.20,26.22,6.09,31.50,1004.79,2049.96,2586.99,2717.02,2886.00,350.35,326.24,32.97,0000 0000 0000 0000 000000
2014-05-09 02:18:40,-0.01,2.41,0.00,17.98,24.20,26.26,6.03,31.50,1004.81,2049.90,2586.84,2717.01,2886.00,349.42,325.19,32.98,0000 0000 0000 0000 000000
2014-05-09 02:19:40,0.02,2.41,0.00,17.99,24.20,26.28,5.98,31.46,1004.82,2049.91,2586.79,2717.00,2885.99,350.71,326.38,32.98,0000 0000 0000 0000 000000
2014-05-09 02:20:40,0.01,2.41,0.00,17.99,24.20,26.24,5.93,31.46,1004.82,2049.91,2586.86,2717.00,2885.99,350.92,326.57,32.99,0000 0000 0000 0000 000000
2014-05-09 02:21:41,-0.01,2.41,0.00,18.01,24.22,26.26,6.07,31.71,1004.78,2049.87,2586.75,2717.00,2885.98,349.99,325.68,32.99,0000 0000 0000 0000 000000
2014-05-09 02:22:41,-0.02,2.41,0.00,18.03,24.22,26.26,6.19,31.54,1004.83,2049.76,2586.74,2717.00,2885.98,350.22,325.89,33.00,0000 0000 0000 0000 000000
2014-05-09 02:23:41,-0.07,2.40,0.00,18.04,24.22,26.20,5.93,31.42,1004.78,2049.59,2586.54,2716.99,2885.93,350.20,325.59,33.01,0000 0000 0000 0000 000000
2014-05-09 02:24:41,-0.11,2.40,0.00,18.07,24.22,26.23,6.05,31.46,1004.74,2049.36,2586.25,2716.98,2885.80,350.15,325.75,33.01,0000 0000 0000 0000 000000
2014-05-09 02:25:42,-0.13,2.40,0.00,18.10,24.22,26.31,6.13,31.75,1004.80,2049.19,2586.26,2716.96,2885.52,350.36,325.92,33.02,0000 0000 0000 0000 000000
2014-05-09 02:26:42,-0.06,2.40,0.00,18.12,24.24,26.33,6.29,31.83,1004.82,2049.11,2586.11,2716.89,2885.26,349.72,325.57,33.02,0000 0000 0000 0000 000000
2014-05-09 02:27:42,0.03,2.40,0.00,18.12,24.25,26.32,6.07,31.67,1004.85,2049.12,2586.04,2716.82,2885.13,349.57,324.94,33.03,0000 0000 0000 0000 000000
2014-05-09 02:28:42,0.04,2.40,0.00,18.15,24.25,26.30,6.17,31.33,1004.84,2049.11,2586.02,2716.81,2885.07,351.47,326.39,33.04,0000 0000 0000 0000 000000
2014-05-09 02:29:42,0.02,2.40,0.00,18.16,24.25,26.26,6.10,31.42,1004.85,2049.09,2586.01,2716.73,2885.07,350.46,325.61,33.04,0000 0000 0000 0000 000000
2014-05-09 02:30:43,0.04,2.40,0.00,18.18,24.25,26.26,6.02,31.79,1004.72,2049.13,2586.02,2716.61,2885.04,349.12,324.26,33.05,0000 0000 0000 0000 000000
2014-05-09 02:31:43,0.04,2.40,0.00,18.20,24.27,26.35,6.01,31.79,1004.70,2049.07,2586.03,2716.49,2885.04,349.83,325.23,33.05,0000 0000 0000 0000 000000
2014-05-09 02:32:43,-0.03,2.40,0.00,18.20,24.27,26.35,6.13,31.50,1004.78,2049.05,2586.05,2716.42,2885.02,350.58,326.00,33.06,0000 0000 0000 0000 000000
2014-05-09 02:33:44,0.00,2.40,0.00,18.21,24.27,26.31,6.05,31.29,1004.72,2049.03,2586.07,2716.37,2885.01,350.07,325.51,33.06,0000 0000 0000 0000 000000
2014-05-09 02:34:44,0.04,2.40,0.00,18.19,24.27,26.31,5.98,31.46,1004.71,2049.03,2586.03,2716.18,2885.00,349.47,324.96,33.07,0000 0000 0000 0000 000000
2014-05-09 02:35:44,0.03,2.40,0.00,18.19,24.29,26.33,6.03,31.63,1004.71,2049.02,2586.00,2716.07,2885.00,350.38,325.74,33.08,0000 0000 0000 0000 000000